Time,TemperatureF,DewpointF,PressureIn,WindDirection,WindDirectionDegrees,WindSpeedMPH,WindSpeedGustMPH,Humidity,HourlyPrecipIn,Conditions,Clouds,dailyrainin,SoftwareType,DateUTC
2013-04-25 00:03:00,48.0,45.0,29.96,SE,146,0.0,-999.0,89,-99.99,,,0.00,weatherlink.com 1.10,2013-04-25 07:03:00,
2013-04-25 00:18:00,48.2,45.0,29.96,SE,146,0.0,-999.0,89,-99.99,,,0.00,weatherlink.com 1.10,2013-04-25 07:18:00,
2013-04-25 00:33:00,48.2,45.0,29.96,SE,146,0.0,-999.0,89,-99.99,,,0.00,weatherlink.com 1.10,2013-04-25 07:33:00,
2013-04-25 00:49:00,48.0,45.0,29.97,SE,144,0.0,-999.0,89,-99.99,,,0.00,weatherlink.com 1.10,2013-04-25 07:49:00,
2013-04-25 01:03:00,48.2,45.0,29.97,SE,144,0.0,-999.0,89,-99.99,,,0.00,weatherlink.com 1.10,2013-04-25 08:03:00,
2013-04-25 01:18:00,48.2,45.0,29.97,SE,144,0.0,-999.0,89,-99.99,,,0.00,weatherlink.com 1.10,2013-04-25 08:18:00,
2013-04-25 01:33:00,48.3,45.0,29.97,SE,144,0.0,-999.0,89,-99.99,,,0.00,weatherlink.com 1.10,2013-04-25 08:33:00,
2013-04-25 01:48:00,48.4,45.0,29.97,SE,144,0.0,-999.0,89,-99.99,,,0.00,weatherlink.com 1.10,2013-04-25 08:48:00,
2013-04-25 02:03:00,48.4,45.0,29.97,SE,144,0.0,-999.0,89,-99.99,,,0.00,weatherlink.com 1.10,2013-04-25 09:03:00,
2013-04-25 02:18:00,48.4,45.0,29.97,SE,144,0.0,-999.0,89,-99.99,,,0.00,weatherlink.com 1.10,2013-04-25 09:18:00,
2013-04-25 02:33:00,48.4,45.0,29.97,SE,144,0.0,-999.0,89,-99.99,,,0.00,weatherlink.com 1.10,2013-04-25 09:33:00,
2013-04-25 02:48:00,48.4,45.0,29.97,SE,144,0.0,-999.0,89,-99.99,,,0.00,weatherlink.com 1.10,2013-04-25 09:48:00,
2013-04-25 03:03:00,48.4,45.0,29.97,SE,144,0.0,-999.0,89,-99.99,,,0.00,weatherlink.com 1.10,2013-04-25 10:03:00,
2013-04-25 03:18:00,48.4,45.0,29.97,SE,144,0.0,-999.0,89,-99.99,,,0.00,weatherlink.com 1.10,2013-04-25 10:18:00,
2013-04-25 03:33:00,48.4,45.0,29.97,SE,141,0.0,-999.0,89,-99.99,,,0.00,weatherlink.com 1.10,2013-04-25 10:33:00,
2013-04-25 03:48:00,48.4,45.0,29.98,SE,141,0.0,-999.0,89,-99.99,,,0.00,weatherlink.com 1.10,2013-04-25 10:48:00,
2013-04-25 04:03:00,48.6,46.0,29.98,SE,140,2.0,-999.0,89,-99.99,,,0.00,weatherlink.com 1.10,2013-04-25 11:03:00,
2013-04-25 04:18:00,48.6,46.0,29.99,SE,140,0.0,-999.0,89,-99.99,,,0.00,weatherlink.com 1.10,2013-04-25 11:18:00,
2013-04-25 04:33:00,48.4,45.0,29.99,SE,140,0.0,-999.0,89,-99.99,,,0.00,weatherlink.com 1.10,2013-04-25 11:33:00,
2013-04-25 04:48:00,48.4,45.0,29.99,SE,140,0.0,-999.0,89,-99.99,,,0.00,weatherlink.com 1.10,2013-04-25 11:48:00,
2013-04-25 05:03:00,48.4,45.0,29.99,SE,140,0.0,-999.0,89,-99.99,,,0.00,weatherlink.com 1.10,2013-04-25 12:03:00,
2013-04-25 05:18:00,48.6,46.0,29.99,SE,140,0.0,-999.0,89,-99.99,,,0.00,weatherlink.com 1.10,2013-04-25 12:18:00,
2013-04-25 05:33:00,48.6,46.0,29.99,SE,140,0.0,-999.0,89,-99.99,,,0.00,weatherlink.com 1.10,2013-04-25 12:33:00,
2013-04-25 05:48:00,48.6,46.0,29.99,SE,140,0.0,-999.0,89,-99.99,,,0.00,weatherlink.com 1.10,2013-04-25 12:48:00,
2013-04-25 06:03:00,48.6,46.0,29.99,SE,140,0.0,-999.0,89,-99.99,,,0.00,weatherlink.com 1.10,2013-04-25 13:03:00,
2013-04-25 06:18:00,48.6,46.0,30.00,SE,140,0.0,-999.0,89,-99.99,,,0.00,weatherlink.com 1.10,2013-04-25 13:18:00,
2013-04-25 06:33:00,48.6,46.0,30.00,SE,140,0.0,-999.0,89,-99.99,,,0.00,weatherlink.com 1.10,2013-04-25 13:33:00,
2013-04-25 06:48:00,48.6,46.0,30.01,SE,140,0.0,-999.0,89,-99.99,,,0.00,weatherlink.com 1.10,2013-04-25 13:48:00,
2013-04-25 07:03:00,48.7,46.0,30.01,SE,140,0.0,-999.0,89,-99.99,,,0.00,weatherlink.com 1.10,2013-04-25 14:03:00,
2013-04-25 07:18:00,48.9,46.0,30.02,SE,140,0.0,-999.0,89,-99.99,,,0.00,weatherlink.com 1.10,2013-04-25 14:18:00,
2013-04-25 07:33:00,49.0,46.0,30.02,SE,140,0.0,-999.0,89,-99.99,,,0.00,weatherlink.com 1.10,2013-04-25 14:33:00,
2013-04-25 07:48:00,49.2,46.0,30.03,SE,140,0.0,-999.0,88,-99.99,,,0.00,weatherlink.com 1.10,2013-04-25 14:48:00,
2013-04-25 08:03:00,49.3,46.0,30.03,SE,140,0.0,-999.0,88,-99.99,,,0.00,weatherlink.com 1.10,2013-04-25 15:03:00,
2013-04-25 08:18:00,49.6,46.0,30.03,SE,140,0.0,-999.0,88,-99.99,,,0.00,weatherlink.com 1.10,2013-04-25 15:18:00,
2013-04-25 08:33:00,49.6,46.0,30.04,SE,140,0.0,-999.0,86,-99.99,,,0.00,weatherlink.com 1.10,2013-04-25 15:33:00,
2013-04-25 08:48:00,49.9,46.0,30.04,SE,140,0.0,-999.0,86,-99.99,,,0.00,weatherlink.com 1.10,2013-04-25 15:48:00,
2013-04-25 09:03:00,50.1,46.0,30.04,SE,140,0.0,-999.0,86,-99.99,,,0.00,weatherlink.com 1.10,2013-04-25 16:03:00,
2013-04-25 09:18:00,50.4,46.0,30.05,SE,140,1.0,-999.0,86,-99.99,,,0.00,weatherlink.com 1.10,2013-04-25 16:18:00,
2013-04-25 09:33:00,51.0,47.0,30.05,NNE,22,2.0,-999.0,85,-99.99,,,0.00,weatherlink.com 1.10,2013-04-25 16:33:00,
2013-04-25 09:48:00,51.6,47.0,30.05,NE,35,0.0,-999.0,84,-99.99,,,0.00,weatherlink.com 1.10,2013-04-25 16:48:00,
2013-04-25 10:03:00,52.4,47.0,30.06,NE,36,3.0,-999.0,83,-99.99,,,0.00,weatherlink.com 1.10,2013-04-25 17:03:00,
2013-04-25 10:18:00,52.9,47.0,30.07,ESE,117,0.0,-999.0,80,-99.99,,,0.00,weatherlink.com 1.10,2013-04-25 17:18:00,
2013-04-25 10:48:00,54.2,47.0,30.07,SSE,151,0.0,-999.0,77,-99.99,,,0.00,weatherlink.com 1.10,2013-04-25 17:48:00,
2013-04-25 11:03:00,55.1,48.0,30.07,SSE,153,0.0,-999.0,76,-99.99,,,0.00,weatherlink.com 1.10,2013-04-25 18:03:00,
2013-04-25 11:18:00,56.1,48.0,30.07,NE,44,1.0,-999.0,74,-99.99,,,0.00,weatherlink.com 1.10,2013-04-25 18:18:00,
2013-04-25 11:33:00,56.8,49.0,30.07,ESE,116,0.0,-999.0,74,-99.99,,,0.00,weatherlink.com 1.10,2013-04-25 18:33:00,
2013-04-25 11:48:00,57.4,48.0,30.07,ESE,106,0.0,-999.0,71,-99.99,,,0.00,weatherlink.com 1.10,2013-04-25 18:48:00,
2013-04-25 12:03:00,58.3,49.0,30.07,NE,55,2.0,-999.0,71,-99.99,,,0.00,weatherlink.com 1.10,2013-04-25 19:03:00,
2013-04-25 12:18:00,59.3,50.0,30.07,North,360,2.0,-999.0,71,-99.99,,,0.00,weatherlink.com 1.10,2013-04-25 19:18:00,
2013-04-25 12:33:00,60.8,51.0,30.06,NNE,30,0.0,-999.0,71,-99.99,,,0.00,weatherlink.com 1.10,2013-04-25 19:33:00,
2013-04-25 12:48:00,63.1,50.0,30.06,ENE,65,2.0,-999.0,62,-99.99,,,0.00,weatherlink.com 1.10,2013-04-25 19:48:00,
2013-04-25 13:03:00,63.3,51.0,30.06,ESE,111,2.0,-999.0,64,-99.99,,,0.00,weatherlink.com 1.10,2013-04-25 20:03:00,
2013-04-25 13:18:00,64.8,50.0,30.05,SE,132,1.0,-999.0,60,-99.99,,,0.00,weatherlink.com 1.10,2013-04-25 20:18:00,
2013-04-25 13:33:00,65.2,50.0,30.06,SSW,205,0.0,-999.0,59,-99.99,,,0.00,weatherlink.com 1.10,2013-04-25 20:33:00,
2013-04-25 13:48:00,66.1,51.0,30.06,SE,136,0.0,-999.0,59,-99.99,,,0.00,weatherlink.com 1.10,2013-04-25 20:48:00,
2013-04-25 14:03:00,67.1,51.0,30.06,North,5,0.0,-999.0,57,-99.99,,,0.00,weatherlink.com 1.10,2013-04-25 21:03:00,
2013-04-25 14:18:00,66.6,51.0,30.06,SSE,153,0.0,-999.0,58,-99.99,,,0.00,weatherlink.com 1.10,2013-04-25 21:18:00,
2013-04-25 14:33:00,67.2,49.0,30.06,SW,215,2.0,-999.0,53,-99.99,,,0.00,weatherlink.com 1.10,2013-04-25 21:33:00,
2013-04-25 14:48:00,66.1,49.0,30.06,SSW,204,4.0,-999.0,54,-99.99,,,0.00,weatherlink.com 1.10,2013-04-25 21:48:00,
2013-04-25 15:03:00,65.2,49.0,30.07,SE,142,2.0,-999.0,57,-99.99,,,0.00,weatherlink.com 1.10,2013-04-25 22:03:00,
2013-04-25 15:18:00,64.9,50.0,30.06,SSE,153,0.0,-999.0,58,-99.99,,,0.00,weatherlink.com 1.10,2013-04-25 22:18:00,
2013-04-25 15:34:00,64.1,50.0,30.06,SSW,209,2.0,-999.0,61,-99.99,,,0.00,weatherlink.com 1.10,2013-04-25 22:34:00,
2013-04-25 15:49:00,64.0,49.0,30.06,SE,132,2.0,-999.0,59,-99.99,,,0.00,weatherlink.com 1.10,2013-04-25 22:49:00,
2013-04-25 16:04:00,64.1,50.0,30.06,SSE,161,0.0,-999.0,61,-99.99,,,0.00,weatherlink.com 1.10,2013-04-25 23:04:00,
2013-04-25 16:19:00,63.6,50.0,30.05,NNW,327,2.0,-999.0,61,-99.99,,,0.00,weatherlink.com 1.10,2013-04-25 23:19:00,
2013-04-25 16:34:00,63.3,50.0,30.05,SE,137,1.0,-999.0,62,-99.99,,,0.00,weatherlink.com 1.10,2013-04-25 23:34:00,
2013-04-25 16:49:00,63.3,49.0,30.05,NNE,30,1.0,-999.0,60,-99.99,,,0.00,weatherlink.com 1.10,2013-04-25 23:49:00,
2013-04-25 17:04:00,62.0,48.0,30.06,SE,133,0.0,-999.0,61,-99.99,,,0.00,weatherlink.com 1.10,2013-04-26 00:04:00,
2013-04-25 17:19:00,61.1,49.0,30.06,SSE,154,0.0,-999.0,64,-99.99,,,0.00,weatherlink.com 1.10,2013-04-26 00:19:00,
2013-04-25 17:34:00,60.3,48.0,30.06,SSE,151,0.0,-999.0,65,-99.99,,,0.00,weatherlink.com 1.10,2013-04-26 00:34:00,
2013-04-25 17:49:00,59.7,48.0,30.06,SSE,168,0.0,-999.0,66,-99.99,,,0.00,weatherlink.com 1.10,2013-04-26 00:49:00,
2013-04-25 18:04:00,58.7,48.0,30.06,ESE,103,0.0,-999.0,67,-99.99,,,0.00,weatherlink.com 1.10,2013-04-26 01:04:00,
2013-04-25 18:19:00,58.1,48.0,30.06,SE,144,0.0,-999.0,68,-99.99,,,0.00,weatherlink.com 1.10,2013-04-26 01:19:00,
2013-04-25 18:34:00,57.4,47.0,30.07,SE,126,6.0,-999.0,69,-99.99,,,0.00,weatherlink.com 1.10,2013-04-26 01:34:00,
2013-04-25 18:49:00,56.4,47.0,30.07,SE,136,0.0,-999.0,71,-99.99,,,0.00,weatherlink.com 1.10,2013-04-26 01:49:00,
2013-04-25 19:04:00,55.7,47.0,30.07,South,174,1.0,-999.0,72,-99.99,,,0.00,weatherlink.com 1.10,2013-04-26 02:04:00,
2013-04-25 19:19:00,55.0,46.0,30.07,South,173,0.0,-999.0,73,-99.99,,,0.00,weatherlink.com 1.10,2013-04-26 02:19:00,
2013-04-25 19:34:00,53.8,46.0,30.08,South,173,0.0,-999.0,75,-99.99,,,0.00,weatherlink.com 1.10,2013-04-26 02:34:00,
2013-04-25 19:49:00,52.7,46.0,30.07,South,173,0.0,-999.0,77,-99.99,,,0.00,weatherlink.com 1.10,2013-04-26 02:49:00,
2013-04-25 20:04:00,51.7,45.0,30.08,South,173,0.0,-999.0,79,-99.99,,,0.00,weatherlink.com 1.10,2013-04-26 03:04:00,
2013-04-25 20:19:00,50.5,45.0,30.09,South,173,0.0,-999.0,82,-99.99,,,0.00,weatherlink.com 1.10,2013-04-26 03:19:00,
2013-04-25 20:34:00,49.6,45.0,30.09,South,173,0.0,-999.0,84,-99.99,,,0.00,weatherlink.com 1.10,2013-04-26 03:34:00,
2013-04-25 20:49:00,48.9,45.0,30.10,ENE,61,0.0,-999.0,86,-99.99,,,0.00,weatherlink.com 1.10,2013-04-26 03:49:00,
2013-04-25 21:04:00,48.4,45.0,30.10,ENE,61,0.0,-999.0,87,-99.99,,,0.00,weatherlink.com 1.10,2013-04-26 04:04:00,
2013-04-25 21:19:00,47.7,44.0,30.11,ENE,61,0.0,-999.0,88,-99.99,,,0.00,weatherlink.com 1.10,2013-04-26 04:19:00,
2013-04-25 21:34:00,47.0,44.0,30.11,ENE,61,0.0,-999.0,89,-99.99,,,0.00,weatherlink.com 1.10,2013-04-26 04:34:00,
2013-04-25 21:49:00,46.2,44.0,30.11,ENE,61,0.0,-999.0,90,-99.99,,,0.00,weatherlink.com 1.10,2013-04-26 04:49:00,
2013-04-25 22:04:00,45.6,43.0,30.11,ENE,61,0.0,-999.0,91,-99.99,,,0.00,weatherlink.com 1.10,2013-04-26 05:04:00,
2013-04-25 22:19:00,45.0,43.0,30.11,ENE,61,0.0,-999.0,92,-99.99,,,0.00,weatherlink.com 1.10,2013-04-26 05:19:00,
2013-04-25 22:34:00,44.5,43.0,30.12,ENE,61,0.0,-999.0,93,-99.99,,,0.00,weatherlink.com 1.10,2013-04-26 05:34:00,
2013-04-25 22:49:00,43.7,42.0,30.12,ENE,61,0.0,-999.0,93,-99.99,,,0.00,weatherlink.com 1.10,2013-04-26 05:49:00,
2013-04-25 23:05:00,43.1,42.0,30.12,ENE,61,0.0,-999.0,94,-99.99,,,0.00,weatherlink.com 1.10,2013-04-26 06:05:00,
2013-04-25 23:20:00,42.6,41.0,30.12,ENE,61,0.0,-999.0,94,-99.99,,,0.00,weatherlink.com 1.10,2013-04-26 06:20:00,
2013-04-25 23:35:00,42.1,41.0,30.12,ENE,61,0.0,-999.0,95,-99.99,,,0.00,weatherlink.com 1.10,2013-04-26 06:35:00,
2013-04-25 23:50:00,41.6,40.0,30.12,ENE,61,0.0,-999.0,95,-99.99,,,0.00,weatherlink.com 1.10,2013-04-26 06:50:00,